Time,TemperatureF,DewpointF,PressureIn,WindDirection,WindDirectionDegrees,WindSpeedMPH,WindSpeedGustMPH,Humidity,HourlyPrecipIn,Conditions,Clouds,dailyrainin,SoftwareType,DateUTC
2013-04-18 00:00:00,65.9,64.1,30.13,NE,39,0.0,0.0,94,0.00,CLR,,0.00,WeatherDisplay:10.37,2013-04-18 04:00:00,
2013-04-18 00:15:00,65.4,63.9,30.13,NE,39,0.0,0.0,95,0.00,CLR,,0.00,WeatherDisplay:10.37,2013-04-18 04:15:00,
2013-04-18 00:30:00,64.9,63.4,30.13,NE,39,0.0,0.0,95,0.00,CLR,,0.00,WeatherDisplay:10.37,2013-04-18 04:30:00,
2013-04-18 00:45:00,64.5,63.0,30.12,NE,39,0.0,0.0,95,0.00,CLR,,0.00,WeatherDisplay:10.37,2013-04-18 04:45:00,
2013-04-18 01:00:00,64.1,62.6,30.11,NE,39,0.0,0.0,95,0.00,CLR,,0.00,WeatherDisplay:10.37,2013-04-18 05:00:00,
2013-04-18 01:15:00,64.4,63.5,30.11,NE,39,0.0,0.0,97,0.00,CLR,,0.00,WeatherDisplay:10.37,2013-04-18 05:15:00,
2013-04-18 01:30:00,64.8,64.0,30.09,NE,39,0.0,2.0,97,0.00,CLR,,0.00,WeatherDisplay:10.37,2013-04-18 05:30:00,
2013-04-18 01:45:00,65.3,64.4,30.09,NE,39,0.0,0.0,97,0.00,CLR,,0.00,WeatherDisplay:10.37,2013-04-18 05:45:00,
2013-04-18 02:00:00,65.2,64.3,30.09,NE,39,0.0,1.0,97,0.00,CLR,,0.00,WeatherDisplay:10.37,2013-04-18 06:00:00,
2013-04-18 02:15:00,65.3,64.4,30.08,NE,39,0.0,0.0,97,0.00,CLR,,0.00,WeatherDisplay:10.37,2013-04-18 06:15:00,
2013-04-18 02:30:00,65.0,64.1,30.08,NE,39,0.0,0.0,97,0.00,CLR,,0.00,WeatherDisplay:10.37,2013-04-18 06:30:00,
2013-04-18 02:45:00,64.8,63.9,30.08,NE,39,0.0,0.0,97,0.00,CLR,,0.00,WeatherDisplay:10.37,2013-04-18 06:45:00,
2013-04-18 03:00:00,64.5,63.7,30.07,NE,39,0.0,0.0,97,0.00,CLR,,0.00,WeatherDisplay:10.37,2013-04-18 07:00:00,
2013-04-18 03:15:00,64.5,63.6,30.08,NE,39,0.0,0.0,97,0.00,CLR,,0.00,WeatherDisplay:10.37,2013-04-18 07:15:00,
2013-04-18 03:30:00,64.4,63.5,30.07,NE,39,0.0,0.0,97,0.00,CLR,,0.00,WeatherDisplay:10.37,2013-04-18 07:30:00,
2013-04-18 03:45:00,64.7,64.1,30.07,NE,39,0.0,0.0,98,0.00,CLR,,0.00,WeatherDisplay:10.37,2013-04-18 07:45:00,
2013-04-18 04:00:00,64.7,64.1,30.07,NE,39,0.0,1.0,98,0.00,CLR,,0.00,WeatherDisplay:10.37,2013-04-18 08:00:00,
2013-04-18 04:15:00,64.0,63.1,30.07,NE,39,0.0,0.0,97,0.00,CLR,,0.00,WeatherDisplay:10.37,2013-04-18 08:15:00,
2013-04-18 04:30:00,63.0,62.2,30.06,NE,39,0.0,0.0,97,0.00,CLR,,0.00,WeatherDisplay:10.37,2013-04-18 08:30:00,
2013-04-18 04:45:00,62.6,61.8,30.06,NE,39,0.0,0.0,97,0.00,CLR,,0.00,WeatherDisplay:10.37,2013-04-18 08:45:00,
2013-04-18 05:00:00,62.3,61.4,30.06,NE,39,0.0,0.0,97,0.00,CLR,,0.00,WeatherDisplay:10.37,2013-04-18 09:00:00,
2013-04-18 05:15:00,62.1,61.2,30.06,NE,39,0.0,0.0,97,0.00,CLR,,0.00,WeatherDisplay:10.37,2013-04-18 09:15:00,
2013-04-18 05:30:00,62.0,61.1,30.06,NE,39,0.0,0.0,97,0.00,CLR,,0.00,WeatherDisplay:10.37,2013-04-18 09:30:00,
2013-04-18 05:45:00,62.0,61.1,30.06,NE,39,0.0,0.0,97,0.00,CLR,,0.00,WeatherDisplay:10.37,2013-04-18 09:45:00,
2013-04-18 06:00:00,61.9,61.0,30.07,NE,39,0.0,0.0,97,0.00,CLR,,0.00,WeatherDisplay:10.37,2013-04-18 10:00:00,
2013-04-18 06:15:00,61.8,61.2,30.08,NE,39,0.0,0.0,98,0.00,CLR,,0.00,WeatherDisplay:10.37,2013-04-18 10:15:00,
2013-04-18 06:30:00,61.7,61.1,30.07,NE,39,0.0,0.0,98,0.00,CLR,,0.00,WeatherDisplay:10.37,2013-04-18 10:30:00,
2013-04-18 06:45:00,61.6,61.0,30.08,NE,39,0.0,0.0,98,0.00,CLR,,0.00,WeatherDisplay:10.37,2013-04-18 10:45:00,
2013-04-18 07:00:00,61.4,60.8,30.08,NE,39,0.0,0.0,98,0.00,CLR,,0.00,WeatherDisplay:10.37,2013-04-18 11:00:00,
2013-04-18 07:15:00,61.3,60.7,30.09,NE,39,0.0,0.0,98,0.00,CLR,,0.00,WeatherDisplay:10.37,2013-04-18 11:15:00,
2013-04-18 07:30:00,61.3,60.7,30.09,NE,39,0.0,0.0,98,0.00,CLR,,0.00,WeatherDisplay:10.37,2013-04-18 11:30:00,
2013-04-18 07:45:00,61.8,61.2,30.09,NE,39,0.0,0.0,98,0.00,CLR,,0.00,WeatherDisplay:10.37,2013-04-18 11:45:00,
2013-04-18 08:00:00,63.8,63.5,30.09,NE,39,0.0,0.0,99,0.00,CLR,,0.00,WeatherDisplay:10.37,2013-04-18 12:00:00,
2013-04-18 08:15:00,65.0,64.7,30.09,NE,39,0.0,0.0,99,0.00,CLR,,0.00,WeatherDisplay:10.37,2013-04-18 12:15:00,
2013-04-18 08:30:00,67.1,66.8,30.10,NE,39,0.0,1.0,99,0.00,CLR,,0.00,WeatherDisplay:10.37,2013-04-18 12:30:00,
2013-04-18 08:45:00,69.1,68.9,30.10,NE,39,0.0,1.0,99,0.00,CLR,,0.00,WeatherDisplay:10.37,2013-04-18 12:45:00,
2013-04-18 09:00:00,70.9,70.0,30.10,NE,39,0.0,3.0,97,0.00,CLR,,0.00,WeatherDisplay:10.37,2013-04-18 13:00:00,
2013-04-18 09:15:00,73.3,70.2,30.10,East,95,1.0,3.0,90,0.00,CLR,,0.00,WeatherDisplay:10.37,2013-04-18 13:15:00,
2013-04-18 09:30:00,75.3,70.5,30.10,East,99,2.0,7.0,85,0.00,CLR,,0.00,WeatherDisplay:10.37,2013-04-18 13:30:00,
2013-04-18 09:45:00,76.4,70.5,30.10,SSE,165,1.0,7.0,82,0.00,CLR,,0.00,WeatherDisplay:10.37,2013-04-18 13:45:00,
2013-04-18 10:00:00,76.5,70.2,30.10,South,174,1.0,6.0,81,0.00,CLR,,0.00,WeatherDisplay:10.37,2013-04-18 14:00:00,
2013-04-18 10:15:00,76.9,70.3,30.11,SSE,147,2.0,4.0,80,0.00,CLR,,0.00,WeatherDisplay:10.37,2013-04-18 14:15:00,
2013-04-18 10:30:00,78.2,70.0,30.11,SSE,161,3.0,7.0,76,0.00,CLR,,0.00,WeatherDisplay:10.37,2013-04-18 14:30:00,
2013-04-18 10:45:00,77.6,69.0,30.10,South,175,3.0,7.0,75,0.00,CLR,,0.00,WeatherDisplay:10.37,2013-04-18 14:45:00,
2013-04-18 11:00:00,78.5,68.3,30.10,SSE,166,3.0,7.0,71,0.00,CLR,,0.00,WeatherDisplay:10.37,2013-04-18 15:00:00,
2013-04-18 11:15:00,78.5,67.9,30.10,SSE,150,3.0,10.0,70,0.00,CLR,,0.00,WeatherDisplay:10.37,2013-04-18 15:15:00,
2013-04-18 11:30:00,78.5,68.3,30.10,South,189,5.0,8.0,71,0.00,CLR,,0.00,WeatherDisplay:10.37,2013-04-18 15:30:00,
2013-04-18 11:45:00,78.7,68.5,30.09,SSW,200,1.0,7.0,71,0.00,CLR,,0.00,WeatherDisplay:10.37,2013-04-18 15:45:00,
2013-04-18 12:00:00,80.2,67.8,30.09,SSW,196,2.0,10.0,66,0.00,CLR,,0.00,WeatherDisplay:10.37,2013-04-18 16:00:00,
2013-04-18 12:15:00,81.0,68.1,30.09,SE,139,3.0,8.0,65,0.00,CLR,,0.00,WeatherDisplay:10.37,2013-04-18 16:15:00,
2013-04-18 12:30:00,81.1,68.6,30.08,SSE,155,1.0,7.0,66,0.00,CLR,,0.00,WeatherDisplay:10.37,2013-04-18 16:30:00,
2013-04-18 12:45:00,82.0,68.1,30.07,South,175,0.0,7.0,63,0.00,CLR,,0.00,WeatherDisplay:10.37,2013-04-18 16:45:00,
2013-04-18 13:00:00,83.3,68.4,30.07,South,173,0.0,7.0,61,0.00,CLR,,0.00,WeatherDisplay:10.37,2013-04-18 17:00:00,
2013-04-18 13:15:00,83.9,67.0,30.07,South,173,0.0,12.0,57,0.00,CLR,,0.00,WeatherDisplay:10.37,2013-04-18 17:15:00,
2013-04-18 13:30:00,84.5,65.5,30.06,South,181,2.0,9.0,53,0.00,CLR,,0.00,WeatherDisplay:10.37,2013-04-18 17:30:00,
2013-04-18 13:45:00,84.8,65.8,30.06,SSE,152,3.0,10.0,53,0.00,CLR,,0.00,WeatherDisplay:10.37,2013-04-18 17:45:00,
2013-04-18 14:00:00,86.2,66.5,30.05,SSW,198,1.0,7.0,52,0.00,CLR,,0.00,WeatherDisplay:10.37,2013-04-18 18:00:00,
2013-04-18 14:15:00,85.9,65.1,30.05,SSE,148,3.0,8.0,50,0.00,CLR,,0.00,WeatherDisplay:10.37,2013-04-18 18:15:00,
2013-04-18 14:30:00,84.6,63.9,30.04,South,174,3.0,8.0,50,0.00,CLR,,0.00,WeatherDisplay:10.37,2013-04-18 18:30:00,
2013-04-18 14:45:00,86.2,64.8,30.03,South,179,2.0,7.0,49,0.00,CLR,,0.00,WeatherDisplay:10.37,2013-04-18 18:45:00,
2013-04-18 15:00:00,85.7,63.8,30.03,SSW,206,0.0,9.0,48,0.00,CLR,,0.00,WeatherDisplay:10.37,2013-04-18 19:00:00,
2013-04-18 15:15:00,85.5,64.8,30.02,NNE,22,2.0,9.0,50,0.00,CLR,,0.00,WeatherDisplay:10.37,2013-04-18 19:15:00,
2013-04-18 15:30:00,87.2,63.3,30.02,SSE,149,2.0,9.0,45,0.00,CLR,,0.00,WeatherDisplay:10.37,2013-04-18 19:30:00,
2013-04-18 15:45:00,85.8,64.4,30.01,SSE,167,2.0,9.0,49,0.00,CLR,,0.00,WeatherDisplay:10.37,2013-04-18 19:45:00,
2013-04-18 16:00:00,86.9,64.8,30.01,SSE,164,1.0,7.0,48,0.00,CLR,,0.00,WeatherDisplay:10.37,2013-04-18 20:00:00,
2013-04-18 16:15:00,87.9,64.5,30.00,SSW,193,0.0,8.0,46,0.00,CLR,,0.00,WeatherDisplay:10.37,2013-04-18 20:15:00,
2013-04-18 16:30:00,87.8,63.2,30.00,WSW,252,0.0,3.0,44,0.00,CLR,,0.00,WeatherDisplay:10.37,2013-04-18 20:30:00,
2013-04-18 16:45:00,87.6,63.6,30.00,South,180,0.0,4.0,45,0.00,CLR,,0.00,WeatherDisplay:10.37,2013-04-18 20:45:00,
2013-04-18 17:00:00,88.7,62.6,30.00,WSW,238,0.0,1.0,42,0.00,CLR,,0.00,WeatherDisplay:10.37,2013-04-18 21:00:00,
2013-04-18 17:15:00,86.9,68.3,29.99,North,355,0.0,4.0,54,0.00,CLR,,0.00,WeatherDisplay:10.37,2013-04-18 21:15:00,
2013-04-18 17:30:00,85.8,67.8,30.00,North,355,0.0,1.0,55,0.00,CLR,,0.00,WeatherDisplay:10.37,2013-04-18 21:30:00,
2013-04-18 17:45:00,85.0,68.0,29.99,ENE,69,2.0,8.0,57,0.00,CLR,,0.00,WeatherDisplay:10.37,2013-04-18 21:45:00,
2013-04-18 18:00:00,83.2,68.8,30.00,ESE,112,1.0,8.0,62,0.00,CLR,,0.00,WeatherDisplay:10.37,2013-04-18 22:00:00,
2013-04-18 18:15:00,82.1,68.7,29.99,SE,124,2.0,9.0,64,0.00,CLR,,0.00,WeatherDisplay:10.37,2013-04-18 22:15:00,
2013-04-18 18:30:00,81.6,68.7,30.00,ESE,117,5.0,12.0,65,0.00,CLR,,0.00,WeatherDisplay:10.37,2013-04-18 22:30:00,
2013-04-18 18:45:00,80.7,68.7,30.00,ESE,123,2.0,9.0,67,0.00,CLR,,0.00,WeatherDisplay:10.37,2013-04-18 22:45:00,
2013-04-18 19:00:00,79.9,68.4,30.00,ESE,117,2.0,7.0,68,0.00,CLR,,0.00,WeatherDisplay:10.37,2013-04-18 23:00:00,
2013-04-18 19:15:00,79.3,68.7,30.00,ESE,113,0.0,8.0,70,0.00,CLR,,0.00,WeatherDisplay:10.37,2013-04-18 23:15:00,
2013-04-18 19:30:00,78.8,68.2,30.00,East,88,0.0,8.0,70,0.00,CLR,,0.00,WeatherDisplay:10.37,2013-04-18 23:30:00,
2013-04-18 19:45:00,78.2,68.0,30.00,SE,125,1.0,6.0,71,0.00,CLR,,0.00,WeatherDisplay:10.37,2013-04-18 23:45:00,
2013-04-18 20:00:00,77.6,68.3,30.01,ESE,117,1.0,4.0,73,0.00,CLR,,0.00,WeatherDisplay:10.37,2013-04-19 00:00:00,
2013-04-18 20:15:00,76.8,67.9,30.01,East,94,0.0,4.0,74,0.00,CLR,,0.00,WeatherDisplay:10.37,2013-04-19 00:15:00,
2013-04-18 20:30:00,76.1,67.6,30.02,East,94,0.0,1.0,75,0.00,CLR,,0.00,WeatherDisplay:10.37,2013-04-19 00:30:00,
2013-04-18 20:45:00,75.3,67.2,30.02,East,94,0.0,2.0,76,0.00,CLR,,0.00,WeatherDisplay:10.37,2013-04-19 00:45:00,
2013-04-18 21:00:00,74.6,67.3,30.03,East,94,0.0,1.0,78,0.00,CLR,,0.00,WeatherDisplay:10.37,2013-04-19 01:00:00,
2013-04-18 21:15:00,73.8,66.9,30.03,East,94,0.0,0.0,79,0.00,CLR,,0.00,WeatherDisplay:10.37,2013-04-19 01:15:00,
2013-04-18 21:30:00,73.3,67.1,30.03,East,94,0.0,2.0,81,0.00,CLR,,0.00,WeatherDisplay:10.37,2013-04-19 01:30:00,
2013-04-18 21:45:00,72.9,67.1,30.03,East,94,0.0,2.0,82,0.00,CLR,,0.00,WeatherDisplay:10.37,2013-04-19 01:45:00,
2013-04-18 22:00:00,72.4,66.9,30.04,East,94,0.0,0.0,83,0.00,CLR,,0.00,WeatherDisplay:10.37,2013-04-19 02:00:00,
2013-04-18 22:15:00,71.7,66.9,30.04,East,94,0.0,0.0,85,0.00,CLR,,0.00,WeatherDisplay:10.37,2013-04-19 02:15:00,
2013-04-18 22:30:00,71.3,66.9,30.04,East,94,0.0,0.0,86,0.00,CLR,,0.00,WeatherDisplay:10.37,2013-04-19 02:30:00,
2013-04-18 22:45:00,71.2,67.5,30.04,ESE,120,0.0,3.0,88,0.00,CLR,,0.00,WeatherDisplay:10.37,2013-04-19 02:45:00,
2013-04-18 23:00:00,71.1,67.7,30.04,SE,132,0.0,0.0,89,0.00,CLR,,0.00,WeatherDisplay:10.37,2013-04-19 03:00:00,
2013-04-18 23:15:00,71.0,68.2,30.04,SE,132,0.0,0.0,91,0.00,CLR,,0.00,WeatherDisplay:10.37,2013-04-19 03:15:00,
2013-04-18 23:30:00,70.8,68.4,30.03,SE,132,0.0,1.0,92,0.00,CLR,,0.00,WeatherDisplay:10.37,2013-04-19 03:30:00,
2013-04-18 23:45:00,71.0,68.9,30.04,SE,132,0.0,0.0,93,0.00,CLR,,0.00,WeatherDisplay:10.37,2013-04-19 03:45:00,